SCP
9 8 8 8 8 8 8 8 8 9 9 9 8 7 6 7 9 10 10 9 8 6 4 5 7 5 3 3 2 2 2 2 2 1 2 3 3 2 2 2 1 1 1
9 8 8 8 9 9 9 9 10 11 10 8 7 7 6 7 8 9 9 8 7 5 4 4 5 4 3 3 2 2 2 2 1 1 2 3 3 3 2 2 1 1 1
9 8 8 8 9 9 9 11 12 12 10 8 7 6 6 6 7 7 7 7 5 4 4 4 3 3 3 3 3 2 2 2 1 1 2 2 2 3 3 2 2 1 1
9 9 9 9 10 10 10 12 14 12 9 8 8 6 6 5 5 6 6 6 5 4 4 4 3 3 3 4 4 3 3 2 2 2 1 1 2 2 2 3 2 2 2
9 9 10 12 13 13 13 14 14 11 9 9 9 7 5 4 4 4 5 5 5 4 4 4 4 3 3 3 4 4 3 3 2 2 2 1 1 2 2 2 2 2 2
9 9 11 14 16 16 16 15 13 11 10 11 10 8 6 4 3 3 4 4 4 4 4 4 3 3 3 3 3 4 3 3 2 2 2 2 2 2 2 2 2 2 3
9 10 12 15 17 18 16 14 13 12 13 13 11 9 8 5 3 2 2 3 4 4 3 3 3 3 3 3 3 4 3 3 2 2 2 2 2 2 2 2 3 3 3
10 11 12 14 16 16 16 15 15 15 15 15 13 10 8 5 2 1 1 2 3 3 3 3 3 3 3 4 4 4 4 3 3 2 2 2 2 2 2 3 3 3 3
10 10 11 12 12 13 15 18 19 19 18 16 14 11 8 6 2 1 1 2 3 4 4 4 4 4 4 4 4 5 5 4 3 2 2 2 2 2 2 2 3 3 3
9 9 10 10 8 9 15 21 24 22 20 16 14 12 9 7 3 1 1 2 3 4 4 4 3 3 3 3 4 6 6 5 4 4 3 2 2 2 2 3 4 4 4
23 26 19 8 6 7 14 24 28 25 19 16 14 13 11 8 5 2 1 2 3 4 4 4 3 2 1 2 3 5 6 6 6 6 5 4 4 3 3 4 5 5 5
32 42 25 7 6 6 13 24 29 24 17 14 13 13 12 10 7 3 1 1 2 3 4 3 2 1 0 1 1 3 4 6 7 8 7 7 6 5 5 5 6 7 6
23 25 18 7 6 8 14 23 25 19 13 11 11 12 12 11 9 6 3 1 1 2 3 2 1 1 0 0 0 1 2 4 6 8 8 8 7 6 6 6 6 7 8
9 9 7 7 7 9 13 18 18 13 9 8 9 11 11 10 9 7 4 2 2 2 2 2 1 1 1 1 1 1 2 3 5 6 7 7 7 6 7 6 6 6 7
10 9 8 7 7 8 10 12 10 8 6 6 7 9 9 7 5 5 4 3 2 2 1 1 1 1 1 2 2 3 3 4 4 5 5 5 5 5 6 7 6 6 6
10 9 8 7 7 8 9 8 7 5 4 3 4 5 5 4 2 1 2 2 2 1 1 1 2 2 2 2 3 3 4 5 6 6 6 6 6 5 5 6 7 6 6
9 9 8 7 7 7 8 8 7 5 3 2 1 2 1 1 0 0 0 0 0 0 1 1 1 2 2 3 3 3 3 5 8 9 10 9 8 8 7 7 7 7 6
8 7 7 7 6 7 7 8 7 7 6 4 2 1 0 0 0 0 0 0 0 0 1 1 1 2 2 3 3 3 3 5 8 11 13 14 13 12 11 10 9 7 7
6 6 5 5 5 5 6 6 7 7 8 7 5 3 1 0 0 0 0 0 1 1 1 1 2 2 2 3 3 3 3 4 6 8 12 16 17 17 15 13 12 9 8
5 4 3 3 4 4 4 5 6 7 9 9 8 5 2 1 1 1 1 1 1 2 2 2 2 2 2 3 3 3 3 3 4 5 8 13 18 21 20 17 15 13 11
5 3 3 3 3 4 4 5 6 7 9 10 9 6 3 2 2 2 2 2 2 2 2 2 2 2 2 2 3 3 3 3 3 3 4 7 14 21 23 19 17 15 14
4 4 3 4 4 4 4 5 6 6 6 8 9 7 4 4 4 3 3 4 4 3 2 2 2 2 2 3 3 3 3 3 2 3 3 5 11 17 20 18 16 15 14
4 4 4 4 4 4 4 5 5 4 4 5 7 8 7 6 6 5 5 5 5 4 3 2 2 2 2 3 4 4 3 3 3 3 3 5 9 13 13 12 12 11 11
3 3 4 4 4 4 4 4 5 4 3 4 5 7 7 7 6 5 4 4 4 4 3 3 2 2 3 4 4 3 3 2 2 3 3 4 6 7 7 6 7 7 7
3 3 3 4 4 4 4 5 5 4 3 3 4 4 5 5 4 4 3 3 3 3 4 4 3 3 3 4 4 3 2 1 1 1 2 2 2 3 3 4 4 4 4
3 3 3 4 5 4 5 5 4 4 4 4 4 3 3 3 3 3 3 3 3 3 4 4 4 3 3 3 3 2 1 0 0 1 1 2 2 2 2 3 3 3 3
Wind_Speed
4 3 2 3 3 3 2 2 2 2 3 3 2 2 2 1 1 1 1 1 1 1 1 1 0 1 1 1 1 1 1 0 1 1 1 2 2 2 3 3 4 5 6
4 4 3 2 3 3 3 3 3 3 3 3 3 3 2 2 1 1 1 1 1 1 1 0 0 1 0 1 2 1 1 0 1 1 1 2 2 3 3 3 4 5 4
5 4 4 3 3 3 3 3 3 3 3 3 3 2 2 2 1 1 1 1 1 1 1 1 1 0 1 1 1 1 2 1 1 2 2 2 1 2 2 3 3 2 4
4 4 4 3 3 3 3 3 3 3 3 3 3 2 2 2 2 2 2 2 1 1 1 1 1 1 1 2 2 2 2 1 1 2 2 2 2 2 2 2 2 2 2
3 3 3 3 3 3 3 3 3 3 3 3 3 2 2 2 2 2 2 3 2 2 1 1 1 1 1 0 1 1 1 2 1 1 2 1 1 1 2 2 1 1 1
3 3 3 3 3 3 3 3 3 3 3 3 3 3 3 2 2 1 1 1 1 2 2 1 2 2 3 3 2 0 1 2 2 2 2 1 1 1 1 2 1 1 1
2 2 3 3 3 3 3 3 3 3 3 3 3 3 3 2 2 2 1 2 2 2 2 2 3 2 3 3 3 3 3 3 4 3 2 2 1 1 1 2 2 2 2
2 2 2 2 3 3 3 3 3 3 3 3 3 3 3 3 3 3 2 3 3 3 3 3 3 1 2 1 3 3 3 3 4 3 3 3 2 1 2 2 3 3 3
2 2 2 2 2 3 3 3 2 2 3 3 3 4 3 2 3 3 3 3 3 4 4 3 3 2 2 2 2 3 3 3 3 3 4 4 3 3 2 2 2 2 3
3 3 3 3 3 3 3 3 3 3 3 3 4 4 4 3 4 5 4 3 3 3 3 3 3 3 3 3 3 4 4 4 3 2 3 4 5 5 6 4 3 3 3
3 3 3 3 3 3 3 3 3 4 4 4 4 4 4 4 6 7 6 3 3 3 3 2 2 3 3 4 4 5 5 4 3 4 4 4 4 4 5 5 5 4 3
1 2 3 3 3 3 3 4 4 5 5 5 5 5 4 4 6 7 9 7 4 3 3 2 1 4 5 6 5 6 5 4 4 4 4 4 4 4 4 5 6 5 5
1 2 3 3 3 3 4 5 4 4 4 4 4 5 4 3 4 8 9 8 7 4 2 2 2 5 4 5 6 6 5 4 4 5 4 4 3 3 3 3 4 4 5
2 3 3 3 3 3 3 4 4 4 4 4 4 4 3 3 3 3 4 4 5 4 4 3 3 5 5 5 4 4 5 5 4 4 3 3 2 2 2 2 2 2 3
2 3 4 4 4 3 3 3 4 3 3 3 3 2 2 2 3 4 4 4 3 3 2 2 2 3 3 4 4 4 4 4 4 4 3 3 2 2 2 2 2 2 2
3 3 3 3 3 3 4 3 3 3 4 5 4 3 2 3 4 5 5 5 5 4 3 3 4 4 5 5 5 4 4 4 4 4 4 3 3 3 2 2 2 2 3
3 3 3 3 3 3 3 3 3 3 3 3 4 5 5 5 5 6 5 4 3 4 4 5 5 5 5 5 4 4 4 4 4 4 4 4 3 3 2 2 2 3 3
4 4 4 4 4 3 4 4 4 4 4 4 5 7 7 8 8 7 5 2 2 3 5 6 6 5 4 4 4 4 3 3 3 3 3 3 3 3 3 3 3 4 3
4 4 4 4 4 4 4 4 4 4 3 3 3 4 7 6 5 5 5 4 5 5 6 6 6 5 5 4 3 3 3 2 2 2 3 3 3 3 3 3 3 4 4
4 5 5 5 5 5 4 4 3 3 3 3 3 2 2 3 3 4 5 5 6 6 6 5 5 4 3 3 2 2 2 2 2 2 3 3 3 3 4 4 4 4 4
5 5 5 6 5 4 4 4 3 3 3 2 3 2 2 3 4 4 4 5 5 5 5 5 4 3 3 2 2 2 2 2 2 2 2 3 3 3 3 4 4 4 3
5 5 4 5 4 4 4 3 4 4 4 4 3 3 4 4 3 3 3 3 4 4 4 3 3 3 2 2 2 2 2 2 2 2 2 3 3 3 4 4 3 3 4
5 6 5 4 3 3 4 4 4 4 4 3 3 3 3 3 2 2 2 2 2 2 2 2 2 2 2 1 2 2 2 2 2 2 2 3 3 3 4 4 5 4 4
6 6 5 4 3 4 4 4 4 4 4 3 3 3 2 2 2 2 2 2 2 2 2 1 1 2 2 2 2 1 1 1 2 2 3 4 4 4 4 4 5 5 4
5 5 5 4 4 3 4 4 4 4 3 3 3 2 2 1 1 1 1 2 2 1 2 1 1 1 2 2 2 2 2 2 2 3 4 4 5 4 4 5 4 3 4
5 5 4 4 4 3 3 3 4 4 4 3 3 1 1 1 1 1 1 1 2 2 1 1 1 2 3 2 2 2 1 1 2 3 4 4 5 4 4 4 4 4 4
Wind_Direction
180 186 189 170 181 190 189 183 167 144 146 152 153 167 159 169 177 177 182 198 192 205 221 155 180 333 332 313 305 303 324 347 173 166 153 152 151 148 163 190 180 181 191
174 170 167 170 172 183 181 176 157 151 163 162 169 178 185 174 187 197 211 216 203 184 216 185 248 245 307 314 305 314 298 282 167 190 183 168 183 172 175 208 202 200 194
173 172 165 174 181 188 185 168 157 162 170 171 171 179 191 179 177 219 216 205 224 187 210 204 207 206 243 284 289 290 280 260 215 208 207 188 185 191 183 221 232 229 218
164 171 167 176 181 184 178 168 163 169 173 174 183 191 201 198 195 222 234 202 210 208 218 208 199 206 224 259 253 268 271 274 241 236 217 200 195 197 183 219 236 238 243
157 169 165 168 167 168 171 168 167 175 175 172 186 194 209 211 219 221 230 206 196 208 217 211 182 136 110 263 264 266 265 259 249 238 234 211 209 190 210 236 233 232 222
168 176 165 168 170 180 180 181 179 178 171 176 194 204 215 218 143 139 221 240 197 204 217 210 198 197 194 194 197 194 262 243 253 260 258 232 225 209 215 245 250 253 259
171 175 167 173 179 191 197 184 184 185 179 189 200 203 204 183 158 163 195 225 215 211 215 230 245 223 198 205 211 217 231 237 231 241 252 259 251 250 243 265 269 257 251
168 176 173 177 186 196 201 194 193 188 191 201 213 221 214 204 184 181 212 230 233 225 221 228 236 239 244 230 245 233 227 243 236 227 236 252 248 249 239 247 258 260 253
198 188 180 185 193 202 207 203 204 201 208 210 213 223 227 216 197 194 205 239 238 237 232 233 225 211 222 224 246 257 248 249 242 227 218 227 227 235 237 259 261 254 259
209 197 186 192 198 208 213 206 210 209 218 226 222 217 217 211 202 206 203 244 244 245 238 224 220 214 216 228 231 242 247 245 246 244 237 238 229 228 223 220 234 249 264
206 193 190 199 213 214 206 204 211 219 224 230 229 223 214 208 198 207 204 234 255 258 250 235 204 183 211 243 246 246 241 241 243 240 237 230 224 219 211 212 215 224 240
241 208 202 204 230 230 216 222 221 223 226 227 228 231 220 204 198 206 207 220 252 268 270 269 210 201 225 240 245 246 245 245 245 245 243 234 224 218 213 208 209 212 216
248 231 235 222 221 233 226 226 224 224 232 236 230 232 226 206 195 199 207 223 236 249 284 297 251 232 242 248 245 243 243 245 245 243 247 245 234 217 208 207 205 209 219
245 227 232 236 236 233 229 229 226 227 228 235 236 241 242 216 192 184 200 218 234 244 259 260 237 236 246 250 250 238 231 240 245 248 249 247 232 217 217 223 224 211 220
259 243 237 235 232 226 226 235 240 240 234 234 248 253 258 253 239 204 204 213 218 226 224 240 243 238 235 230 230 228 226 227 233 245 257 264 251 236 232 213 220 233 233
282 264 252 252 246 243 237 242 252 249 236 231 231 235 241 228 208 202 206 219 218 200 202 237 243 242 239 237 233 227 222 227 228 223 230 235 234 235 233 223 210 232 248
286 281 272 269 257 253 255 248 249 249 253 254 244 235 229 222 209 205 210 221 222 183 216 243 245 243 242 244 244 237 227 220 218 222 225 228 226 229 230 230 230 237 245
288 282 272 264 264 260 260 256 251 240 235 240 245 237 226 216 214 213 198 170 211 208 232 243 248 247 241 242 246 244 236 220 214 224 227 225 225 230 232 229 230 235 243
294 293 289 280 278 273 263 260 258 255 251 246 239 229 226 223 220 215 187 211 233 240 242 245 248 250 252 245 238 241 237 225 224 234 242 232 226 229 238 241 239 237 241
281 276 277 277 273 271 269 269 267 260 260 264 261 263 184 190 210 207 206 220 232 242 247 252 255 254 254 254 246 244 241 234 225 237 251 247 241 238 237 238 241 236 236
280 271 272 273 267 268 267 265 270 266 263 267 273 257 213 225 233 230 222 223 233 242 245 253 256 257 255 256 251 251 254 247 236 242 254 260 256 249 246 243 240 241 240
288 284 279 284 288 294 291 288 287 282 278 271 265 244 215 239 250 243 241 241 247 254 256 246 251 256 259 256 253 245 245 261 261 248 249 256 257 254 251 248 248 244 240
284 284 283 283 286 286 279 279 277 276 279 283 280 266 238 248 258 268 272 275 271 268 277 274 266 269 269 258 243 232 237 256 265 263 262 265 267 263 257 253 250 249 246
280 280 284 287 290 288 283 279 283 282 280 278 275 269 254 240 249 269 282 287 280 277 277 269 270 301 319 309 290 292 34 358 321 294 272 267 266 261 259 257 254 254 250
286 288 291 291 289 288 289 292 290 291 297 300 293 290 292 284 275 284 312 315 306 305 307 323 356 359 351 355 10 24 30 25 350 324 301 279 274 270 267 264 261 259 252
297 294 290 292 295 300 303 310 315 316 308 301 296 304 331 332 317 321 329 333 319 314 325 352 20 23 12 8 25 41 24 341 313 300 289 280 277 273 267 263 264 264 260